Theta_e
355 358 362 354 332 331 322 323 330 327 328 335 335 332 332 335 331 325 352 353 355 355 359 360 366 364 365 365 364 363 363 362 361 362 362 361 362 362 362 362 363 362 362 362 361 360 359 359 358
354 352 356 344 328 319 321 328 326 330 335 337 336 334 333 333 343 345 348 355 355 356 358 360 366 367 364 366 366 365 363 363 362 361 359 359 359 361 361 360 362 361 360 360 360 359 356 358 358
352 353 340 335 329 320 320 327 330 334 336 335 333 337 336 336 344 347 354 355 357 356 359 362 367 367 364 364 364 363 363 362 362 361 362 359 359 360 359 359 358 358 358 357 358 357 356 357 356
351 348 341 326 321 326 326 330 332 331 335 337 336 331 342 347 346 352 355 356 356 355 359 365 366 363 364 365 364 363 362 362 361 363 360 354 354 347 354 357 357 357 356 356 357 358 356 355 356
350 340 327 322 323 327 330 333 333 329 333 335 335 332 335 347 353 354 354 355 355 354 358 364 366 366 365 364 364 364 363 362 361 360 359 355 351 348 351 353 353 355 356 356 358 356 355 356 356
338 336 324 318 321 327 331 334 332 332 334 336 333 333 338 351 351 352 354 354 354 354 358 361 365 366 365 364 364 363 363 362 360 357 357 356 353 353 352 350 354 354 356 356 356 357 358 357 356
329 330 320 320 321 324 330 336 332 331 333 334 338 331 340 346 352 353 353 354 354 356 357 361 363 364 364 364 364 363 362 361 359 357 358 355 354 355 354 355 354 355 356 356 357 358 358 357 356
336 331 320 322 321 322 333 334 336 333 333 341 340 332 335 346 353 353 353 353 355 356 358 360 363 362 364 362 363 363 362 360 359 357 357 355 353 355 356 355 357 357 357 358 358 358 357 356 355
336 327 319 320 323 325 334 331 338 341 336 338 336 339 343 350 352 351 351 352 353 355 357 359 360 362 362 362 363 362 362 360 358 357 358 354 352 353 359 357 358 358 358 356 356 357 358 357 355
329 324 322 327 329 328 331 332 334 335 334 335 337 342 346 350 349 346 347 348 350 353 355 357 357 360 361 356 366 363 361 358 359 360 359 354 356 357 355 356 357 357 358 357 357 357 358 358 354
327 323 327 330 333 334 331 332 336 333 331 336 336 340 344 346 347 345 346 346 348 352 353 354 358 359 357 355 367 362 366 357 359 362 364 357 355 354 352 355 355 358 358 356 357 357 355 354 356
321 326 328 330 334 332 331 334 332 334 335 339 339 342 343 344 344 343 344 346 347 350 352 353 357 358 359 357 357 357 356 356 356 357 358 355 352 353 359 356 359 359 357 358 357 355 358 355 357
320 322 326 329 331 332 333 332 332 333 338 340 341 341 341 342 343 345 346 347 350 350 352 354 358 359 359 362 356 355 355 354 354 357 355 354 351 354 356 359 364 357 356 355 357 358 358 357 355
322 323 323 325 327 330 329 331 334 334 339 339 340 339 341 341 343 345 346 347 349 351 353 355 357 360 360 361 361 355 356 356 356 355 355 357 353 354 363 357 356 361 357 356 355 357 363 363 358
319 318 319 321 324 325 331 328 329 335 339 337 338 340 340 341 343 344 347 348 350 351 352 353 357 359 359 360 360 357 356 355 354 355 357 351 356 358 359 356 352 354 357 361 359 362 358 356 356
316 319 312 317 321 325 327 316 326 336 337 336 338 338 340 342 343 346 347 349 351 351 352 355 354 355 358 361 357 354 357 358 354 355 356 358 355 358 358 355 353 357 358 358 358 363 352 351 352
315 310 310 312 318 321 324 319 325 335 336 335 337 338 339 341 344 346 347 349 350 352 354 355 355 354 357 360 360 356 361 365 355 356 356 357 353 357 357 357 358 361 357 357 357 356 352 348 349
309 309 310 310 315 316 315 317 321 328 334 334 337 338 339 339 341 346 348 348 349 351 354 356 355 357 360 363 360 362 363 355 366 365 363 358 356 356 359 360 360 362 364 357 357 353 355 352 352
311 311 310 313 315 315 315 315 318 322 330 332 335 337 338 339 342 346 348 348 349 351 353 356 357 359 358 356 355 356 352 357 359 365 359 358 355 357 359 357 350 360 358 360 360 356 356 352 356
311 310 310 314 316 315 314 315 320 322 324 331 333 335 338 340 341 344 346 348 348 350 353 356 358 360 359 355 357 357 358 357 362 363 359 357 357 358 360 359 355 353 353 361 360 359 351 354 354
311 311 310 310 314 315 316 312 314 319 328 330 333 336 337 339 340 342 345 346 348 350 353 356 359 360 360 358 356 358 361 359 358 360 354 355 357 357 360 357 355 356 362 366 365 362 356 349 353
309 313 311 310 310 306 313 304 313 316 318 322 326 329 334 338 341 341 342 345 347 349 353 357 359 360 360 360 355 356 350 352 360 360 353 353 357 357 358 357 349 358 360 360 363 360 357 354 346
311 313 312 312 310 309 309 307 309 315 314 317 324 326 332 337 340 340 342 345 348 350 352 355 359 360 359 359 356 353 355 358 360 351 354 356 358 358 354 357 354 354 354 361 366 362 358 353 349
314 312 313 313 310 303 307 306 307 312 313 319 325 328 333 336 339 341 342 345 347 350 352 353 357 359 359 358 356 355 354 355 358 356 350 350 352 355 357 357 357 356 354 360 364 363 359 357 356
313 309 303 302 303 302 309 306 309 313 316 319 326 327 335 338 339 340 341 344 348 348 351 352 356 357 358 356 355 355 355 355 355 357 349 350 349 351 357 357 357 353 362 364 366 365 363 362 359
311 310 303 297 299 303 309 303 309 315 318 322 326 330 335 338 340 341 342 345 347 348 350 351 354 354 356 355 354 356 356 354 360 355 349 347 350 353 360 360 356 358 360 361 365 368 359 363 359
311 307 312 306 307 303 306 309 314 316 318 320 323 326 333 338 339 341 342 344 347 348 350 351 354 353 354 355 355 355 355 356 359 356 355 349 354 354 360 360 361 363 364 364 363 357 359 360 360
312 315 306 307 299 298 304 305 306 311 316 318 321 325 328 336 339 341 342 344 346 348 349 352 352 353 355 354 354 353 355 356 356 356 355 353 354 357 357 359 360 362 362 364 365 359 361 361 357
310 309 309 309 307 301 300 304 314 313 318 319 322 325 328 332 337 341 343 345 346 348 349 350 352 353 354 353 353 353 352 354 355 353 355 356 359 359 358 359 359 359 360 362 363 364 359 360 359
315 312 312 305 304 307 306 305 317 318 318 321 322 328 329 334 336 339 343 344 346 347 350 350 352 352 353 354 353 351 353 351 351 352 353 355 358 361 361 361 361 362 362 363 362 361 356 357 355
Wind_Speed
8 5 3 5 5 3 5 5 0 7 5 2 1 4 9 5 9 5 15 10 20 18 17 16 14 14 15 15 14 13 14 15 15 14 14 11 12 11 10 11 11 9 8 8 9 9 8 8 8
2 2 5 2 3 5 6 4 6 5 6 5 5 2 1 8 9 11 15 14 20 18 17 17 14 14 14 13 13 13 13 15 14 15 18 13 8 11 10 8 9 8 7 6 6 6 4 5 7
5 4 5 2 1 5 6 4 7 7 5 3 4 2 4 6 6 13 16 19 18 14 15 16 13 14 14 14 14 13 12 12 13 15 17 16 13 11 10 9 7 7 6 5 5 4 3 4 5
4 5 4 4 9 6 8 6 10 6 5 2 1 6 8 7 9 9 18 18 18 15 15 16 15 15 14 14 13 14 12 12 11 13 16 16 10 2 4 5 5 5 5 5 3 4 3 3 4
4 4 4 8 8 5 4 5 6 3 3 5 2 6 6 8 9 16 19 17 18 16 15 16 13 14 14 14 13 13 14 13 13 13 14 14 12 6 2 2 4 5 5 5 6 4 4 4 4
2 4 3 7 7 2 3 4 2 2 4 6 2 5 8 11 13 16 17 16 16 14 15 16 14 14 13 14 14 14 12 13 12 12 12 15 13 11 8 5 5 5 6 6 6 6 5 5 4
5 3 6 4 5 3 1 3 4 2 3 6 3 4 7 12 13 16 16 14 14 13 12 13 15 13 13 11 12 11 12 12 13 12 13 12 10 8 7 8 5 5 6 7 7 6 5 4 3
3 4 4 5 6 6 2 2 1 2 4 5 2 4 10 15 15 15 14 14 13 12 12 10 8 13 12 12 11 12 11 11 11 11 12 10 12 6 7 6 7 7 7 8 7 6 5 4 4
1 1 7 7 7 5 2 5 2 1 4 4 1 3 5 19 18 16 15 13 11 10 10 11 12 10 9 10 10 10 9 9 9 10 10 9 8 8 11 6 7 7 7 7 7 6 6 5 5
4 5 8 6 4 5 2 3 3 6 5 5 8 6 12 18 17 17 17 15 15 14 13 11 11 12 11 7 9 8 7 8 8 6 11 6 6 3 5 5 4 5 5 6 6 7 6 9 8
4 7 7 4 6 4 2 2 3 6 5 6 7 11 15 16 17 16 16 16 15 13 11 12 8 8 8 7 7 6 5 5 6 9 7 6 3 6 7 4 6 8 8 9 10 9 9 8 3
3 5 5 5 3 3 3 3 4 6 4 6 2 13 16 16 16 16 16 14 13 14 13 12 12 10 10 6 7 6 5 6 5 8 7 6 5 4 2 2 2 5 5 3 3 3 1 4 6
10 9 4 4 5 6 4 6 6 7 5 4 7 14 15 14 14 13 13 13 13 13 13 12 12 11 10 9 7 6 6 5 6 6 5 5 5 4 4 4 4 3 4 1 5 3 4 6 6
9 9 5 4 5 6 6 4 4 3 8 8 11 14 14 14 15 13 13 12 13 12 13 13 13 12 11 9 7 6 6 6 5 5 7 6 5 4 4 4 2 3 4 7 4 4 4 6 4
8 6 4 8 6 4 6 9 7 4 9 11 13 14 13 14 15 15 15 13 13 12 11 12 12 13 12 12 8 8 7 7 7 7 7 6 5 4 4 4 4 5 6 3 5 5 4 5 5
6 4 5 10 7 3 7 2 3 6 10 12 13 14 15 16 17 15 15 14 14 13 11 11 11 13 13 11 9 9 7 6 7 7 8 8 6 5 5 4 5 6 4 5 4 4 5 5 5
4 5 7 6 6 8 4 12 3 4 11 12 14 15 16 16 16 15 15 14 14 13 12 12 12 12 12 9 8 9 8 6 7 7 6 9 6 4 6 4 4 4 5 5 4 4 4 5 6
7 11 10 9 8 10 11 15 11 9 12 14 14 15 17 18 20 18 16 15 14 13 13 12 10 10 8 7 7 6 6 4 5 5 5 9 6 7 5 4 2 5 4 5 4 4 5 5 6
9 11 12 11 5 13 11 12 14 7 13 14 14 16 17 19 18 17 17 14 13 13 13 13 12 10 9 9 7 7 8 7 7 6 9 7 6 6 4 1 2 3 5 4 5 5 5 5 4
10 11 11 10 6 11 11 15 15 11 11 14 16 17 18 18 18 19 17 17 17 14 14 13 13 12 10 7 5 5 6 7 7 7 8 7 8 6 6 4 5 5 6 4 6 5 5 3 5
12 12 9 13 15 16 9 15 2 5 4 9 14 16 17 19 19 19 19 18 17 16 15 14 14 13 12 9 6 5 6 4 7 8 7 8 8 8 6 4 4 4 6 4 5 6 5 4 4
14 1 6 13 15 12 8 11 13 3 7 8 10 12 15 18 18 18 19 17 16 16 15 15 15 14 12 12 8 10 9 8 7 7 7 7 8 7 7 6 4 5 1 4 4 5 3 3 4
12 2 11 12 15 14 16 7 6 2 6 12 7 3 10 15 19 19 19 18 18 16 16 14 14 13 11 11 8 8 8 7 7 7 10 8 8 7 8 6 6 5 4 3 2 4 4 2 2
7 12 13 14 11 12 4 6 7 4 11 12 7 1 7 13 17 18 18 16 15 15 15 14 15 14 12 11 11 11 11 9 6 8 10 9 8 8 7 6 6 3 4 5 4 4 5 2 2
11 15 11 8 10 7 6 9 6 8 8 10 9 3 7 12 17 17 18 17 16 17 16 14 16 15 14 12 12 12 10 11 10 9 9 9 8 8 10 8 8 7 6 4 2 4 5 4 2
10 10 7 8 9 8 4 6 6 9 5 8 4 2 6 10 14 16 17 17 19 19 18 17 16 13 15 13 12 11 11 9 8 9 9 8 8 9 10 9 9 9 7 5 4 4 6 5 4
8 12 7 12 11 9 11 3 11 4 8 8 8 2 5 11 13 16 17 18 18 18 18 19 16 16 15 14 12 12 11 10 9 10 7 7 6 7 8 10 9 7 7 8 6 5 6 3 4
11 9 9 11 13 14 8 4 10 3 8 9 11 11 2 8 13 15 16 16 16 17 17 18 17 17 16 15 13 12 12 12 9 8 10 8 8 7 9 9 9 9 9 8 7 6 7 5 5
7 11 10 12 10 11 13 8 6 3 6 8 11 13 9 4 9 13 15 16 16 16 16 17 18 16 15 15 13 13 13 12 11 10 10 9 9 9 10 10 10 9 9 9 8 7 4 6 5
14 16 16 11 13 11 11 13 1 2 5 5 9 13 12 8 7 10 14 16 16 16 15 16 17 16 15 14 14 14 14 13 13 11 11 10 9 9 10 10 9 8 9 8 9 10 10 10 9
Wind_Direction
204 222 269 238 235 205 100 96 97 131 129 33 143 353 31 34 11 54 133 134 137 140 139 147 143 137 135 130 128 132 135 147 145 143 135 135 144 145 142 136 136 128 133 122 121 114 107 106 99
271 209 228 259 261 187 105 126 131 78 101 129 122 211 345 66 59 117 137 153 148 143 150 142 146 141 137 133 131 133 138 140 148 139 136 140 148 158 161 143 146 144 146 155 136 124 120 108 101
265 235 271 327 19 71 119 148 98 101 119 149 142 312 7 57 84 138 122 150 144 149 141 127 154 144 142 142 139 138 139 142 141 144 143 148 158 163 160 156 158 155 153 173 174 177 169 118 118
246 191 207 32 76 79 100 134 130 179 139 120 20 94 109 28 145 139 142 151 141 159 147 140 155 147 143 147 148 145 144 141 139 141 146 150 151 129 162 174 183 174 180 158 175 188 171 147 141
234 248 90 68 80 113 100 129 146 188 148 158 213 97 76 82 115 134 147 157 154 156 140 151 157 147 146 149 149 150 149 148 146 142 143 144 149 178 251 344 205 190 191 180 199 195 173 165 156
208 278 92 68 75 113 180 176 183 183 156 120 205 127 82 117 137 143 151 159 155 150 149 140 157 152 151 154 151 154 153 152 154 147 155 158 166 190 217 237 244 198 182 173 184 177 163 158 158
356 351 48 60 48 105 52 176 219 222 159 150 159 122 110 141 138 149 158 155 150 149 155 156 161 155 157 157 154 153 153 157 160 156 155 152 164 184 196 219 208 193 173 167 178 163 163 174 193
333 285 35 58 30 59 91 169 257 268 102 91 198 142 156 147 152 154 158 158 157 159 152 165 155 163 166 155 155 157 159 159 164 169 162 161 172 176 196 192 183 174 163 177 170 163 163 176 173
289 335 35 32 4 33 114 217 173 260 184 136 132 338 93 145 156 158 159 160 161 164 168 172 168 170 172 156 151 158 163 165 171 177 168 175 193 187 157 139 144 182 175 177 177 175 171 183 187
342 21 19 358 13 16 336 257 167 219 200 189 178 110 132 155 165 169 170 165 179 174 183 171 179 165 164 169 154 177 163 179 176 188 165 210 177 193 309 123 183 170 180 178 185 183 188 219 200
57 21 2 37 1 333 341 250 208 245 216 243 206 146 153 163 174 178 181 177 181 178 183 172 185 170 187 171 151 188 153 169 158 175 175 177 199 181 212 162 186 185 181 192 190 179 213 197 231
38 12 356 357 344 303 300 333 260 267 299 331 187 152 160 173 179 183 186 181 181 182 187 177 179 184 198 169 187 177 186 175 172 173 181 177 195 214 195 219 217 234 174 151 135 237 244 236 203
15 0 343 329 296 289 288 264 286 263 212 212 150 159 167 178 176 180 184 180 181 184 184 186 185 186 195 196 189 203 204 199 178 169 165 194 203 180 225 213 204 194 175 232 170 199 197 229 208
334 325 332 8 333 285 281 281 252 139 189 190 176 174 173 178 175 175 190 185 184 191 188 187 195 189 196 191 205 205 204 178 194 186 179 205 209 197 221 183 250 250 223 159 243 173 208 210 197
314 315 58 32 16 323 313 234 232 167 180 187 189 187 179 184 179 184 189 194 191 192 191 197 191 194 197 194 192 213 201 192 192 169 193 168 228 218 265 240 189 201 224 223 197 177 211 211 198
300 236 355 22 349 69 291 12 150 170 185 190 194 190 189 191 190 190 189 196 190 205 193 204 201 192 199 191 183 212 206 213 198 179 182 177 194 229 228 227 156 216 226 216 205 199 179 190 197
196 333 1 356 39 328 286 309 81 192 203 201 194 195 198 195 199 192 195 195 191 194 188 198 195 201 205 195 178 207 201 209 197 192 185 166 201 167 248 235 183 211 222 208 199 178 209 174 191
342 318 326 335 351 327 293 280 289 201 225 221 203 200 199 201 200 193 201 195 194 186 189 195 188 206 201 187 195 199 195 191 225 222 200 172 179 198 221 234 264 242 224 186 194 174 197 187 166
296 293 308 328 9 327 321 297 295 279 212 233 226 209 206 205 198 193 195 195 200 193 187 187 188 184 188 194 182 197 205 180 206 209 198 176 184 195 198 203 207 261 258 161 183 178 207 184 173
274 279 290 306 322 314 305 304 291 280 248 231 232 228 217 207 199 193 194 190 204 193 191 189 188 181 199 201 191 212 206 199 193 205 180 200 188 183 191 204 149 195 237 212 184 188 201 200 188
247 266 297 319 316 292 293 299 332 238 255 254 239 237 222 212 202 193 192 191 196 193 193 189 186 182 194 201 184 198 199 197 183 200 181 184 192 190 199 180 267 232 258 158 201 177 212 206 185
260 38 294 301 311 311 332 307 303 58 290 238 248 235 223 207 206 194 190 192 197 196 192 190 186 183 188 188 187 190 200 178 188 186 179 178 193 194 174 174 151 242 290 272 204 182 208 201 216
262 79 280 299 295 299 284 261 314 154 333 357 349 285 213 203 196 200 196 189 199 188 193 189 185 185 186 188 206 197 199 182 190 169 164 196 174 194 190 192 175 220 216 226 244 154 205 146 254
294 277 272 257 270 268 89 305 306 53 339 351 357 28 199 193 189 193 191 190 190 184 192 185 180 185 187 192 196 203 185 180 192 182 171 176 174 179 188 189 213 148 219 233 205 178 176 174 78
229 259 265 241 213 282 96 286 321 315 30 353 352 25 178 186 185 186 184 178 182 185 187 179 186 186 187 189 194 193 194 185 188 181 186 174 180 179 168 182 191 177 200 206 208 199 165 172 139
212 267 300 285 278 311 84 262 20 10 22 10 9 86 157 186 186 188 185 181 183 187 184 182 183 187 188 188 189 191 191 188 191 198 181 193 187 179 149 180 180 186 191 204 181 197 234 137 178
174 226 288 290 242 259 270 275 254 117 71 25 38 333 178 188 189 193 186 187 191 189 186 184 176 183 191 188 182 186 192 196 203 176 198 197 204 157 177 181 188 192 202 195 194 226 214 194 216
262 342 241 215 265 264 267 265 272 346 14 6 20 24 331 199 194 189 191 193 193 199 191 186 176 184 188 183 183 185 190 198 192 182 199 193 191 224 175 195 193 197 202 211 202 198 191 213 226
184 224 224 281 295 290 282 265 77 331 7 357 18 29 4 274 205 196 193 192 196 200 198 190 184 189 184 189 182 184 186 191 193 192 197 203 201 202 204 206 204 206 210 210 212 239 244 213 231
275 282 284 252 252 234 284 287 30 50 344 30 16 19 9 334 272 209 192 191 191 198 199 197 187 191 190 186 180 188 187 193 192 202 194 203 205 205 206 205 208 211 215 211 216 226 237 216 219